Regional Weather Roundup
Issued by NWS Grand Forks, ND

Home | Current Version | Previous Version | Graphics & Text | Print | Product List | Glossary On
Versions: 1 2 3 4 5 6 7 8 9 10 11 12 13 14 15 16 17 18 19 20 21 22 23 24 25 26 27 28 29 30 31 32 33 34 35 36 37 38 39 40 41 42 43 44 45 46 47 48 49 50
000
ASUS43 KFGF 180631
RWRFGF
PRAIRIE TO PINES  WEATHER ROUNDUP
NATIONAL WEATHER SERVICE EASTERN NORTH DAKOTA/GRAND FORKS ND
100 AM CDT SAT APR 18 2015

 **SATELLITE DATA USED TO AUGMENT SKY COVER AT AUTOMATED STATIONS**
 *****  WEATHER ACROSS EASTERN NORTH DAKOTA  *****

CITY           SKY/WX    TMP DP  RH WIND       PRES   REMARKS
GRAND FORKS    FAIR      35  27  72 N7        30.15S
6HR MIN TEMP:  34; 6HR MAX TEMP:  65;

GRAND FRKS AFB FAIR      34  26  73 N3        30.15S
GRAND FRKS NWS   N/A     41 N/A N/A NE3         N/A
DEVILS LAKE    FAIR      39  27  60 E6        30.14S
6HR MIN TEMP:  41; 6HR MAX TEMP:  66;

FARGO          FAIR      48  21  34 N10       30.11R
WAHPETON ARPT  FAIR      50  19  29 N9        30.09R
$$

 ***** WEATHER ACROSS CENTRAL AND WESTERN NORTH DAKOTA  *****

CITY           SKY/WX    TMP DP  RH WIND       PRES   REMARKS
BISMARCK       CLEAR     46  29  51 E8        30.11S
6HR MIN TEMP:  42; 6HR MAX TEMP:  72;

MINOT          FAIR      44  26  49 E9        30.11S
6HR MIN TEMP:  38; 6HR MAX TEMP:  63;

JAMESTOWN      FAIR      40  22  48 NE6       30.12R
6HR MIN TEMP:  40; 6HR MAX TEMP:  72;

MINOT AFB      FAIR      40  28  62 SE7       30.11S
GARRISON         N/A     47  27  45 E13       30.10S
WILLISTON      CLEAR     51  27  39 SE8       30.07S
6HR MIN TEMP:  51; 6HR MAX TEMP:  70;

DICKINSON      CLEAR     43  21  41 E9        30.06S
6HR MIN TEMP:  40; 6HR MAX TEMP:  68;

HETTINGER      PTCLDY    32  26  78 W3        30.08F
6HR MIN TEMP:  32; 6HR MAX TEMP:  66;

$$

 *****  OTHER AIRPORT OBSERVATIONS IN OUR AREA  *****

CITY           SKY/WX    TMP DP  RH WIND       PRES   REMARKS
WALHALLA       FAIR      34  30  86 SW6       30.19R
GRAFTON AIRPOR FAIR      39  30  70 N6        30.18R
VALLEY CITY AR FAIR      46  27  46 NE8       30.12S
CANDO          FAIR      37  27  65 E8        30.16S
CAVALIER APRT  FAIR      36  28  75 CALM      30.18R
GWINNER        CLEAR     46  21  36 N8        30.11R
SHEYENNE NWR     N/A     50  17  26 N7        29.95S
ROLLA          FAIR      32  25  74 NE5       30.17S
 ***** THE ABOVE OBSERVATIONS ARE NON NWS ARE NOT QUALITY
       CONTROLLED AND MAY MIS-REPORT RAIN FOR SNOW...
$$

  *****  WEATHER ACROSS NORTHERN MINNESOTA  *****

CITY           SKY/WX    TMP DP  RH WIND       PRES   REMARKS
FLAG ISLAND    FAIR      37  30  75 CALM      30.19S
WARROAD        FAIR      37  32  81 E5        30.21R
ROSEAU         FAIR      36  30  80 E7        30.20S
HALLOCK        FAIR      41  28  60 E6        30.17S
THF RVR FALLS  FAIR      43  28  56 NE9       30.16S
6HR MIN TEMP:  45; 6HR MAX TEMP:  64;

BAUDETTE       FAIR      39  30  70 NE6       30.20R
6HR MIN TEMP:  39; 6HR MAX TEMP:  57;

WASKISH        FAIR      41  30  65 NE10      30.17S
CROOKSTON      FAIR      43  28  56 NE8       30.15S
STEPHEN NDAWN    N/A     34  25  69 NE6         N/A
GREENBUSH NDAW   N/A     37  30  75 E7          N/A
$$
  *****  WEATHER ACROSS CENTRAL AND WEST MINNESOTA  *****

CITY           SKY/WX    TMP DP  RH WIND       PRES   REMARKS
FOSSTON        FAIR      41  21  45 NE3       30.14S
BEMIDJI        FAIR      41  28  57 NE7       30.13S
PARK RAPIDS    FAIR      51  23  33 NE7       30.10S
6HR MIN TEMP:  51; 6HR MAX TEMP:  71;

ELBOW LAKE     FAIR      55  31  39 NE10      30.07R
6HR MIN TEMP:  50; 6HR MAX TEMP:  68;

WADENA         FAIR      48  25  40 NE6       30.10R
DETROIT LAKES  FAIR      50  27  40 NE8       30.11S
MOORHEAD       FAIR      46  23  39 N9        30.12R
FERGUS FALLS   FAIR      54  23  30 E12G17    30.09S
MORRIS MN      FAIR      46  19  34 CALM      30.06S
STAPLES        FAIR      52  21  30 CALM      30.09R
$$
  *****  WEATHER ELSEWHERE ACROSS MINNESOTA  *****

CITY           SKY/WX    TMP DP  RH WIND       PRES   REMARKS
DULUTH         FAIR      52  27  38 N14G24    30.08R
6HR MIN TEMP:  52; 6HR MAX TEMP:  70;

INTRNTL FALLS  FAIR      39  30  70 E3        30.19R
6HR MIN TEMP:  39; 6HR MAX TEMP:  62;

ELY            FAIR      43  30  61 NE5       30.17R
CLOQUET        FAIR      52  19  28 NE7       30.10R
WHEATON        FAIR      45  23  42 N5        30.09R
BRAINERD       FAIR      53  26  35 NE12      30.08S
6HR MIN TEMP:  51; 6HR MAX TEMP:  70;

HIBBING        FAIR      47  28  47 NE9       30.12R
6HR MIN TEMP:  47; 6HR MAX TEMP:  69;

ALEXANDRIA     FAIR      55  26  32 NE9       30.08S
6HR MIN TEMP:  47; 6HR MAX TEMP:  68;

SAINT CLOUD    FAIR      42  31  64 N7        30.05R
6HR MIN TEMP:  42; 6HR MAX TEMP:  70;

MINNEAPOLIS    FAIR      57  31  37 SW3       30.04S
6HR MIN TEMP:  55; 6HR MAX TEMP:  72;

$$

  *****  WEATHER ACROSS SOUTH DAKOTA  *****

CITY           SKY/WX    TMP DP  RH WIND       PRES   REMARKS
SIOUX FALLS    MOCLDY    56  30  37 NE3       30.05S
6HR MIN TEMP:  55; 6HR MAX TEMP:  71;

BROOKINGS      FAIR      45  28  53 CALM      30.08R
WATERTOWN      FAIR      42  27  55 CALM      30.07S
6HR MIN TEMP:  42; 6HR MAX TEMP:  68;

HURON          MOCLDY    51  28  41 E3        30.05R
6HR MIN TEMP:  47; 6HR MAX TEMP:  71;

SISSETON         N/A     50  27  40 NW12      30.06S
ABERDEEN       MOCLDY    46  24  42 N12       30.07R
6HR MIN TEMP:  40; 6HR MAX TEMP:  72;

MITCHELL       CLOUDY    58  30  34 NE8       30.05S
PIERRE         LGT RAIN  54  49  83 W10       30.06S
6HR MIN TEMP:  54; 6HR MAX TEMP:  69; 6HR PCP: TRACE;

MOBRIDGE       CLOUDY    44  26  49 CALM      30.04S
RAPID CITY     CLOUDY    47  45  93 NW3       30.09F
6HR MIN TEMP:  47; 6HR MAX TEMP:  52; 6HR PCP:  0.03;

$$

  *****  SOME WEATHER IN NEARBY STATES *****

CITY           SKY/WX    TMP DP  RH WIND       PRES   REMARKS
GLASGOW MT     CLEAR     45  27  49 SE9       29.98F
6HR MIN TEMP:  45; 6HR MAX TEMP:  70;

GREAT FALLS MT CLEAR     44  29  55 NW8       29.98R
6HR MIN TEMP:  41; 6HR MAX TEMP:  68;

CHEYENNE WY    CLOUDY    33  32  96 N8        30.04F
6HR MIN TEMP:  33; 6HR MAX TEMP:  36; 6HR PCP:  0.06;

SCOTTSBLUFF NE RAIN      42  42 100 W8        30.05S FOG
6HR MIN TEMP:  42; 6HR MAX TEMP:  48; 6HR PCP:  0.60;

OMAHA NE       CLOUDY    64  55  72 NW5       29.97F
6HR MIN TEMP:  62; 6HR MAX TEMP:  75; 6HR PCP: TRACE;

DES MOINES IA  CLOUDY    68  52  56 E5        30.00F
6HR MIN TEMP:  65; 6HR MAX TEMP:  76;

DAVENPORT IA   FAIR      57  45  64 S5        30.01F
6HR MIN TEMP:  55; 6HR MAX TEMP:  75;

CHICAGO IL     MOCLDY    61  46  57 CALM      30.00S
6HR MIN TEMP:  58; 6HR MAX TEMP:  74;

EAU CLAIRE WI  FAIR      46  31  55 CALM      30.02S
6HR MIN TEMP:  46; 6HR MAX TEMP:  71;

LA CROSSE WI   FAIR      57  50  77 CALM      30.02R
6HR MIN TEMP:  53; 6HR MAX TEMP:  75;

$$

  *****  SOME NATIONAL WEATHER *****

CITY           SKY/WX    TMP DP  RH WIND       PRES   REMARKS
LA GUARDIA NY  FAIR      61  45  55 NW7       29.97S
6HR MIN TEMP:  59; 6HR MAX TEMP:  70;

RALEIGH NC     CLOUDY    64  62  93 CALM      29.99F
6HR MIN TEMP:  64; 6HR MAX TEMP:  71;

ATLANTA GA     LGT RAIN  63  60  90 E9        30.00F FOG
6HR MIN TEMP:  62; 6HR MAX TEMP:  63; 6HR PCP:  0.22;

NEW ORLEANS LA CLOUDY    74  70  87 SW3       29.92F
6HR MIN TEMP:  74; 6HR MAX TEMP:  79;

OKLAHOMA CITY  CLOUDY    65  59  81 SE7       29.95R
6HR MIN TEMP:  63; 6HR MAX TEMP:  70;

ALBUQUERQUE NM CLOUDY    44  28  53 N12       30.05F
6HR MIN TEMP:  44; 6HR MAX TEMP:  52;

SALT LAKE CITY PTCLDY    52  37  56 SE5       30.04S
6HR MIN TEMP:  52; 6HR MAX TEMP:  62;



USA.gov is the U.S. government's official web portal to all federal, state and local government web resources and services.